Location: Eaton
(41.3139°N, 82.0207°W)
Time: 08:27:40
(UTC+00:00)

COSMOS 2406 - Visible Passes

Search period start: 18 October 2021 00:00
Search period end: 28 October 2021 00:00
Orbit: 842 x 865 km, 71.0° (Epoch: 17 October)

Date Brightness Start Highest point End Pass type
(mag) Time Alt. Az. Time Alt. Az. Time Alt. Az.
18 Oct 5.7 07:46:43 17° NE 07:46:43 17° NE 07:48:11 10° NE visible
18 Oct 4.2 09:28:48 32° NNW 09:28:48 32° NNW 09:32:38 10° N visible
19 Oct 5.9 07:35:58 13° NE 07:35:58 13° NE 07:36:41 10° NE visible
19 Oct 4.6 09:18:03 27° NNW 09:18:03 27° NNW 09:21:07 10° N visible
20 Oct 6.1 07:25:08 10° NE 07:25:08 10° NE 07:25:13 10° NE visible
20 Oct 4.9 09:07:13 23° N 09:07:13 23° N 09:09:38 10° N visible
21 Oct 5.2 08:56:20 19° N 08:56:20 19° N 08:58:07 10° N visible
22 Oct 5.4 08:45:25 16° N 08:45:25 16° N 08:46:37 10° N visible
23 Oct 5.6 08:34:26 13° N 08:34:26 13° N 08:35:07 10° N visible
24 Oct 5.8 08:23:27 11° N 08:23:27 11° N 08:23:37 10° N visible
